This is the latest recevied weather packets stored in our database for station/object PA1CD-13. If no packets are shown the sender has not sent any weather packets the latest 10 day(s).
| Time | Temp. | Humidity | Pressure | Rain* | Wind** | Luminosity | Snow |
|---|---|---|---|---|---|---|---|
| 1777566966 | 19.44° C | 36% | 1025.2 hPa | 0 mm | - | 336 W/m² | - |
| 1777566846 | 19.44° C | 35% | 1025.3 hPa | 0 mm | - | 336 W/m² | - |
| 1777566722 | 19.44° C | 36% | 1025.2 hPa | 0 mm | - | 343 W/m² | - |
| 1777566602 | 19.44° C | 35% | 1025.4 hPa | 0 mm | - | 350 W/m² | - |
| 1777566482 | 20° C | 36% | 1025.4 hPa | 0 mm | - | 353 W/m² | - |
| 1777566363 | 20° C | 36% | 1025.4 hPa | 0 mm | - | 362 W/m² | - |
| 1777566242 | 20° C | 36% | 1025.4 hPa | 0 mm | - | 364 W/m² | - |
| 1777566123 | 20° C | 36% | 1025.4 hPa | 0 mm | - | 378 W/m² | - |
| 1777566002 | 20° C | 35% | 1025.4 hPa | 0 mm | - | 378 W/m² | - |
| 1777565883 | 20° C | 35% | 1025.3 hPa | 0 mm | - | 383 W/m² | - |
| 1777565763 | 20° C | 35% | 1025.5 hPa | 0 mm | - | 383 W/m² | - |
| 1777565644 | 20° C | 36% | 1025.5 hPa | 0 mm | - | 390 W/m² | - |
| 1777565524 | 20° C | 36% | 1025.5 hPa | 0 mm | - | 394 W/m² | - |
| 1777565404 | 20° C | 36% | 1025.5 hPa | 0 mm | - | 408 W/m² | - |
| 1777565284 | 20° C | 36% | 1025.5 hPa | 0 mm | - | 408 W/m² | - |
| 1777565132 | 20° C | 34% | 1025.6 hPa | 0 mm | - | 415 W/m² | - |
| 1777565012 | 20° C | 36% | 1025.6 hPa | 0 mm | - | 427 W/m² | - |
| 1777564894 | 20° C | 35% | 1025.5 hPa | 0 mm | - | 427 W/m² | - |
| 1777564775 | 20° C | 35% | 1025.5 hPa | 0 mm | - | 427 W/m² | - |
| 1777564654 | 20° C | 35% | 1025.6 hPa | 0 mm | - | 434 W/m² | - |
| 1777564533 | 20° C | 36% | 1025.5 hPa | 0 mm | - | 438 W/m² | - |
| 1777564413 | 20° C | 36% | 1025.6 hPa | 0 mm | - | 447 W/m² | - |
| 1777564294 | 20° C | 36% | 1025.6 hPa | 0 mm | - | 447 W/m² | - |
| 1777564173 | 20° C | 35% | 1025.4 hPa | 0 mm | - | 452 W/m² | - |
| 1777564053 | 20° C | 35% | 1025.6 hPa | 0 mm | - | 457 W/m² | - |
* Rain latest hour (hover to see other rain measurements)
** Current wind speed in m/s (hover to see current wind gust speed)